[[[{"header":{"parameterUnit":"kt","parameterCategory":2,"dx":1,"dy":1,"la1":30.253999710083008,"la2":30.299108505249023,"lo1":-89.0895004272461,"lo2":-89.04439544677734,"nx":28,"ny":28,"refTime":"2022-10-21T21:00:00:Z","depth":0,"parameterNumber":1,"parameterNumberName":"U-component_of_WINDS"},"data":[-1.2878,-1.2894,-1.2889,-1.2906,-1.2904,-1.2915,-1.2917,-1.292,-1.2921,-1.2934,-1.2941,-1.2938,-1.2938,-1.2945,-1.2954,-1.2952,-1.2957,-1.2967,-1.2964,-1.2922,-1.2917,-1.2911,-1.2907,-1.2967,-1.2967,-1.3008,-1.3008,-1.3008,-1.2851,-1.285,-1.2856,-1.2859,-1.2865,-1.2853,-1.2854,-1.2861,-1.2871,-1.2872,-1.2878,-1.2889,-1.2898,-1.2894,-1.2902,-1.2911,-1.2906,-1.2913,-1.2913,-1.2914,-1.2869,-1.2865,-1.2917,-1.2917,-1.2917,-1.2917,-1.2917,-1.2917,-1.2801,-1.281,-1.2809,-1.2816,-1.2816,-1.2818,-1.2826,-1.2822,-1.2829,-1.2835,-1.2827,-1.2839,-1.2839,-1.2846,-1.2847,-1.2857,-1.2847,-1.2854,-1.2856,-1.2859,-1.2862,-1.2808,-1.2857,-1.2857,-1.2857,-1.2857,-1.2857,0,-1.2763,-1.2758,-1.2763,-1.2767,-1.2772,-1.2774,-1.2776,-1.2781,-1.2768,-1.2775,-1.2783,-1.2788,-1.2797,-1.2805,-1.2811,-1.281,-1.2799,-1.2797,-1.2802,-1.2807,-1.2811,-1.2811,-1.274,-1.2796,-1.2795,-1.2795,-1.2794,-1.2794,-1.2714,-1.2724,-1.2719,-1.2724,-1.2723,-1.273,-1.2734,-1.2721,-1.2726,-1.2726,-1.2736,-1.2743,-1.2749,-1.2765,-1.276,-1.2767,-1.2761,-1.2784,-1.2762,-1.2767,-1.2764,-1.2764,-1.2766,-1.2788,-1.2789,-1.279,-1.279,0,-1.2687,-1.2677,-1.2691,-1.2685,-1.2683,-1.2696,-1.2691,-1.27,-1.2694,-1.2706,-1.2708,-1.2699,-1.2708,-1.2699,-1.2707,-1.2703,-1.2726,-1.272,-1.2727,-1.2725,-1.2746,-1.2745,-1.2809,-1.2818,-1.2753,-1.2754,-1.2754,0,-1.2641,-1.2656,-1.264,-1.2649,-1.2665,-1.2651,-1.2668,-1.2664,-1.2663,-1.2672,-1.2656,-1.2665,-1.2652,-1.266,-1.2653,-1.267,-1.2671,-1.2669,-1.2668,-1.2672,-1.2672,-1.2675,-1.2673,-1.2661,-1.266,-1.266,-1.266,0,-1.2601,-1.2609,-1.2623,-1.2623,-1.2617,-1.2624,-1.2622,-1.262,-1.2624,-1.2627,-1.2629,-1.2634,-1.2636,-1.2641,-1.2632,-1.2618,-1.2652,-1.2631,-1.265,-1.2651,-1.2659,-1.2659,-1.2717,-1.2659,-1.2659,-1.2659,-1.2659,0,-1.2563,-1.2565,-1.2586,-1.2581,-1.2584,-1.2593,-1.2596,-1.2601,-1.26,-1.2596,-1.2598,-1.2587,-1.2599,-1.258,-1.2598,-1.2583,-1.2587,-1.2585,-1.2587,-1.2588,-1.2567,-1.2603,-1.2658,-1.2664,-1.2589,-1.2588,-1.2588,0,-1.2522,-1.254,-1.2527,-1.2548,-1.2555,-1.2536,-1.2547,-1.2545,-1.254,-1.2546,-1.2541,-1.2548,-1.2531,-1.2532,-1.2542,-1.2537,-1.2556,-1.2534,-1.2546,-1.2546,-1.2548,-1.2598,-1.2609,-1.2647,-1.258,-1.2581,-1.2582,0,-1.2488,-1.2479,-1.2483,-1.2483,-1.2477,-1.2483,-1.2494,-1.2497,-1.2502,-1.2501,-1.2512,-1.252,-1.2508,-1.251,-1.25,-1.2511,-1.2543,-1.2497,-1.2497,-1.2507,-1.2575,-1.2586,-1.2592,-1.2534,-1.2535,-1.2536,-1.2575,0,-1.2436,-1.2443,-1.2453,-1.2451,-1.2454,-1.2465,-1.2453,-1.2457,-1.2448,-1.2441,-1.2455,-1.2451,-1.2454,-1.2458,-1.2448,-1.2476,-1.247,-1.2457,-1.2437,-1.247,-1.2483,-1.2488,-1.2419,-1.2419,-1.2418,-1.2418,0,0,-1.24,-1.2409,-1.2393,-1.2403,-1.2404,-1.2383,-1.2397,-1.2396,-1.2393,-1.2395,-1.2384,-1.2395,-1.2392,-1.241,-1.2419,-1.242,-1.2425,-1.2413,-1.2454,-1.2458,-1.2462,-1.2476,-1.2481,-1.2417,-1.2417,-1.2416,-1.2416,0,-1.2379,-1.2373,-1.2386,-1.2383,-1.2379,-1.2371,-1.2374,-1.2366,-1.2363,-1.2375,-1.2359,-1.2365,-1.2373,-1.2373,-1.2374,-1.241,-1.2398,-1.2412,-1.2436,-1.2449,-1.2454,-1.2458,-1.2473,-1.2478,-1.2415,-1.2415,-1.2415,0,-1.2345,-1.2338,-1.2342,-1.2341,-1.2338,-1.2345,-1.2322,-1.2329,-1.2334,-1.2312,-1.2324,-1.232,-1.2318,-1.2335,-1.2343,-1.2333,-1.2375,-1.2359,-1.2362,-1.2363,-1.2375,-1.238,-1.2385,-1.2318,-1.2318,-1.2317,0,0,-1.2328,-1.2333,-1.2321,-1.2335,-1.2335,-1.2322,-1.2324,-1.2314,-1.2312,-1.2311,-1.2305,-1.2303,-1.2308,-1.2312,-1.2316,-1.2336,-1.2335,-1.2347,-1.2352,-1.2356,-1.2359,-1.2371,-1.2377,-1.2316,-1.2316,-1.2316,0,0,-1.232,-1.2307,-1.2297,-1.2312,-1.2309,-1.2299,-1.2309,-1.2297,-1.2299,-1.2296,-1.2281,-1.2279,-1.2295,-1.2292,-1.2279,-1.2309,-1.229,-1.2293,-1.2311,-1.2316,-1.2321,-1.2322,-1.2254,0,0,0,0,0,-1.2291,-1.2308,-1.23,-1.23,-1.2298,-1.2304,-1.2304,-1.2291,-1.2278,-1.2286,-1.228,-1.2266,-1.2282,-1.227,-1.2271,-1.2286,-1.2302,-1.2305,-1.2307,-1.2335,-1.2341,-1.2346,0,0,0,0,0,0,-1.2291,-1.2292,-1.2299,-1.229,-1.2289,-1.2303,-1.2279,-1.2276,-1.2277,-1.2274,-1.2267,-1.2265,-1.2255,-1.2268,-1.227,-1.2284,-1.2254,-1.2303,-1.2305,-1.2307,-1.2337,-1.2342,-1.2346,0,0,0,0,0,-1.2291,-1.2291,-1.2292,-1.229,-1.2289,-1.2276,-1.2278,-1.2275,-1.2276,-1.2265,-1.2262,-1.2266,-1.2256,-1.2256,-1.2269,-1.2284,-1.2253,-1.2253,-1.2304,-1.2306,-1.2308,-1.2339,0,0,0,0,0,0,-1.2291,-1.2289,-1.2292,-1.2291,-1.2282,-1.2275,-1.2273,-1.2275,-1.2267,-1.2264,-1.2263,-1.226,-1.2256,-1.2256,-1.2257,-1.2284,-1.2252,-1.2252,-1.2253,-1.2306,-1.2307,-1.2308,0,0,0,0,0,0,-1.2289,-1.2289,-1.2291,-1.2282,-1.228,-1.2274,-1.2273,-1.2282,-1.2267,-1.2265,-1.2263,-1.2262,-1.2256,-1.2257,-1.2257,-1.2271,-1.2251,-1.2252,-1.2252,-1.2252,-1.2307,-1.2308,0,0,0,0,0,0,-1.2289,-1.2289,-1.2282,-1.228,-1.2279,-1.2272,-1.2282,-1.2281,-1.2258,-1.2265,-1.2255,-1.2254,-1.2257,-1.2257,-1.2257,-1.2272,-1.2271,-1.2251,-1.2252,-1.2252,-1.2252,0,0,0,0,0,0,0,-1.2289,-1.2292,-1.2295,-1.2279,-1.2278,-1.2286,-1.2286,-1.2285,-1.2258,-1.2257,-1.2256,-1.2255,-1.2248,-1.2249,-1.2249,-1.2272,0,0,-1.2251,-1.2251,0,0,0,0,0,0,0,0,-1.2291,-1.2291,-1.2295,-1.2295,-1.2295,-1.2286,-1.2286,-1.2286,-1.2257,-1.2257,-1.2256,-1.2255,-1.2248,-1.2249,-1.2249,0,0,0,0,0,0,0,0,0,0,0,0,0,0,0,-1.2295,-1.2295,0,-1.2286,-1.2286,-1.2286,-1.2257,-1.2257,-1.2256,-1.2255,-1.2248,-1.2249,-1.2249,0,0,0,0,0,0,0,0,0,0,0,0,0,0,0,0,0,0,0,0,0,0,0,0,0,0,0,0,0,0,0,0,0,0,0,0,0,0,0,0,0,0,0,0,0,0,0,0,0,0,0,0,0,0,0,0,0,0,0,0,0,0,0,0,0,0,0,0,0]}],[{"header":{"parameterUnit":"kt","parameterCategory":2,"dx":1,"dy":1,"la1":30.253999710083008,"la2":30.299108505249023,"lo1":-89.0895004272461,"lo2":-89.04439544677734,"nx":28,"ny":28,"refTime":"2022-10-21T21:00:00:Z","depth":0,"parameterNumber":2,"parameterNumberName":"V-component_of_WINDS"},"data":[8.5868,8.5891,8.5849,8.5856,8.5819,8.5815,8.58,8.5776,8.5746,8.5736,8.5723,8.5682,8.5634,8.5606,8.5588,8.557,8.5563,8.5602,8.5573,8.5441,8.5419,8.5399,8.5389,8.5603,8.5603,8.5714,8.5715,8.5716,8.5772,8.5736,8.5728,8.5691,8.5683,8.562,8.5585,8.5582,8.558,8.5544,8.5529,8.5517,8.5501,8.5439,8.5416,8.5424,8.5391,8.542,8.5416,8.5409,8.5267,8.5257,8.5447,8.5447,8.5447,8.5447,8.5447,8.5447,8.5583,8.56,8.5552,8.5543,8.5513,8.5489,8.5496,8.5446,8.5437,8.5409,8.5361,8.5358,8.5312,8.5264,8.5238,8.5233,8.5192,8.521,8.5213,8.5217,8.5226,8.5064,8.5228,8.5227,8.5226,8.5226,8.5225,0,8.5431,8.5394,8.5384,8.5361,8.5352,8.533,8.5302,8.5306,8.5212,8.5209,8.52,8.5188,8.5163,8.5148,8.5118,8.5085,8.5015,8.5006,8.5017,8.5037,8.5059,8.5042,8.4808,8.5,8.4998,8.4997,8.4996,8.4995,8.5233,8.5259,8.519,8.5188,8.5162,8.5162,8.5152,8.5068,8.5061,8.5014,8.5033,8.5018,8.5001,8.4995,8.4933,8.4914,8.4879,8.4957,8.4876,8.4895,8.4874,8.4871,8.4871,8.4973,8.4975,8.4978,8.498,0,8.5125,8.5055,8.5081,8.5009,8.4992,8.5023,8.496,8.4973,8.4923,8.4933,8.4931,8.4851,8.4843,8.4769,8.4747,8.4708,8.4753,8.4723,8.4767,8.4755,8.4813,8.4806,8.5023,8.5045,8.4828,8.483,8.4832,0,8.4926,8.4964,8.4856,8.4875,8.4914,8.4827,8.4867,8.4827,8.4787,8.4795,8.4706,8.4715,8.4619,8.4617,8.456,8.4585,8.4582,8.4552,8.4535,8.4557,8.456,8.4548,8.4535,8.4504,8.4503,8.4502,8.4501,0,8.476,8.4748,8.478,8.4765,8.4691,8.4708,8.4678,8.4633,8.4625,8.4602,8.4595,8.4576,8.4565,8.4551,8.4477,8.4424,8.4507,8.442,8.4475,8.4477,8.4494,8.4493,8.4708,8.4499,8.4499,8.4499,8.4498,0,8.4586,8.4566,8.4624,8.4559,8.4559,8.4581,8.4554,8.4556,8.4515,8.4479,8.4461,8.4392,8.4411,8.4328,8.4352,8.4303,8.4297,8.427,8.4273,8.4265,8.4173,8.4298,8.4515,8.4532,8.4264,8.4262,8.4261,0,8.4413,8.4453,8.4377,8.4434,8.4441,8.4338,8.436,8.4327,8.4282,8.428,8.423,8.423,8.4154,8.4143,8.4165,8.4112,8.4176,8.4103,8.4096,8.4097,8.4105,8.4305,8.4353,8.4477,8.4235,8.4238,8.424,0,8.4268,8.4179,8.4194,8.4172,8.4114,8.4121,8.4148,8.4128,8.4131,8.4105,8.4122,8.4124,8.4064,8.4048,8.399,8.4017,8.413,8.3948,8.3946,8.3979,8.4218,8.4262,8.4284,8.4085,8.4088,8.409,8.4219,0,8.4013,8.4024,8.4065,8.4023,8.4017,8.405,8.3969,8.3973,8.3916,8.3867,8.3895,8.3849,8.383,8.3836,8.3782,8.3869,8.3841,8.3778,8.3688,8.3823,8.3862,8.3879,8.3635,8.3632,8.3629,8.3627,0,0,8.3861,8.3875,8.3792,8.3814,8.3803,8.3694,8.3736,8.3713,8.3669,8.3663,8.3613,8.3608,8.3573,8.3614,8.365,8.3645,8.3651,8.3608,8.3761,8.3776,8.379,8.3834,8.3853,8.3623,8.3622,8.3621,8.362,0,8.3749,8.3717,8.376,8.3732,8.3687,8.3633,8.3644,8.358,8.355,8.3579,8.3487,8.3495,8.3495,8.3467,8.3454,8.3602,8.3531,8.3604,8.3708,8.3738,8.3756,8.3773,8.382,8.3839,8.3614,8.3614,8.3614,0,8.3588,8.3541,8.3554,8.3526,8.3495,8.3507,8.3393,8.3412,8.3419,8.3298,8.3327,8.3291,8.3249,8.3302,8.3322,8.3277,8.3426,8.3367,8.3381,8.338,8.3405,8.3427,8.3448,8.3181,8.3179,8.3178,0,0,8.3502,8.3513,8.3436,8.3495,8.3483,8.3403,8.3402,8.3344,8.3309,8.3295,8.3246,8.3215,8.3213,8.3214,8.3208,8.3278,8.326,8.3317,8.3337,8.3354,8.3363,8.3392,8.3414,8.3174,8.3174,8.3174,0,0,8.3461,8.3372,8.3321,8.338,8.335,8.3277,8.3316,8.3251,8.3237,8.3224,8.3128,8.3115,8.3163,8.3131,8.308,8.3174,8.3087,8.3098,8.3192,8.3217,8.3237,8.3241,8.2956,0,0,0,0,0,8.3304,8.3383,8.3337,8.3335,8.3299,8.3303,8.3297,8.3219,8.3158,8.319,8.3139,8.3064,8.3083,8.3036,8.3035,8.3091,8.3116,8.3126,8.3136,8.3273,8.33,8.3322,0,0,0,0,0,0,8.3302,8.33,8.3335,8.3266,8.3257,8.3299,8.3178,8.3158,8.3152,8.3137,8.3076,8.3062,8.2996,8.3031,8.3031,8.3086,8.2955,8.312,8.3129,8.3136,8.3282,8.3304,8.3323,0,0,0,0,0,8.3301,8.3299,8.3261,8.3264,8.3257,8.3171,8.3174,8.3157,8.3151,8.3071,8.3054,8.3092,8.2999,8.2995,8.3031,8.3088,8.2954,8.2955,8.3125,8.3132,8.3139,8.3293,0,0,0,0,0,0,8.3299,8.3283,8.3258,8.3252,8.3228,8.3167,8.3155,8.3156,8.3083,8.3068,8.3082,8.3071,8.3003,8.2999,8.2995,8.3093,8.2953,8.2954,8.2954,8.3131,8.3136,8.3141,0,0,0,0,0,0,8.3283,8.3279,8.3255,8.3214,8.3203,8.3164,8.3153,8.3173,8.3084,8.3097,8.3086,8.3078,8.3008,8.3002,8.2999,8.3034,8.2953,8.2953,8.2954,8.2954,8.3135,8.3139,0,0,0,0,0,0,8.328,8.3277,8.3214,8.3206,8.3197,8.3131,8.318,8.3147,8.3049,8.3102,8.3038,8.3032,8.3014,8.3009,8.3002,8.3039,8.3035,8.2953,8.2953,8.2953,8.2953,0,0,0,0,0,0,0,8.3278,8.332,8.3289,8.32,8.3191,8.3203,8.3202,8.32,8.3048,8.3043,8.3039,8.3035,8.295,8.295,8.2951,8.3043,0,0,8.2953,8.2953,0,0,0,0,0,0,0,0,8.332,8.332,8.3289,8.3288,8.3287,8.3203,8.3202,8.3201,8.3047,8.3043,8.304,8.3036,8.295,8.295,8.2951,0,0,0,0,0,0,0,0,0,0,0,0,0,0,0,8.3289,8.3288,0,8.3203,8.3202,8.3201,8.3046,8.3043,8.304,8.3038,8.295,8.295,8.2951,0,0,0,0,0,0,0,0,0,0,0,0,0,0,0,0,0,0,0,0,0,0,0,0,0,0,0,0,0,0,0,0,0,0,0,0,0,0,0,0,0,0,0,0,0,0,0,0,0,0,0,0,0,0,0,0,0,0,0,0,0,0,0,0,0,0,0,0,0]}]]]